Pine River, MN

8:03 AM CDT on August 23, 2017 (GMT -0500)
Pine River Regional

Weather History for KPWC - August, 2013

Change the Weather History Date:

Friday, August 2, 2013

  Actual Average Record
Temperature  
Mean Temperature 60 °F -  
Max Temperature 73 °F 76 °F 89 °F (1997)
Min Temperature 48 °F 53 °F 6 °F (1998)
Degree Days  
Heating Degree Days 4    
Growing Degree Days 10 (Base 50)    
Moisture  
Dew Point 52 °F    
Average Humidity 72    
Maximum Humidity 100    
Minimum Humidity 43    
Precipitation  
Precipitation 0.00 in - - ()
Sea Level Pressure  
Sea Level Pressure 30.00 in    
Wind  
Wind Speed 3 mph (NNW)    
Max Wind Speed 14 mph    
Max Gust Speed 20 mph    
Visibility 10 miles    
Events      
Averages and records for this station are not official NWS values.
T = Trace of Precipitation, MM = Missing Value Source: NWS Daily Summary

Daily Weather History Graph

Daily Weather History Graph

Search for Another Location

Airport or City:

Trip Planner

Search our weather history database for the weather conditions in past years. The results will help you decide how hot, cold, wet, or windy it might be!

Date:

Astronomy

Aug. 02, 2013 Rise Set
Actual Time 5:59 AM CDT 8:47 PM CDT
Civil Twilight 5:24 AM CDT 9:22 PM CDT
Nautical Twilight 4:39 AM CDT 10:06 PM CDT
Astronomical Twilight 3:46 AM CDT 10:58 PM CDT
Moon 2:18 AM CDT (8/2) 5:48 PM CDT (8/2)
Length of Visible Light 15h 57m
Length of Day
14h 48m
Waning Crescent, 15% of the Moon is Illuminated
Aug 2
Waning Crescent
Aug 6
New
Aug 14
First Quarter
Aug 20
Full
Aug 28
Last Quarter

Hourly Weather History & Observations

Time (CDT) Temp. Dew Point Humidity Pressure Visibility Wind Dir Wind Speed Gust Speed Precip Events Conditions
12:13 AM 60.8 °F 53.6 °F 77% 29.94 in 10.0 mi Calm Calm - N/A   Clear
12:32 AM 59.0 °F 51.8 °F 77% 29.94 in 10.0 mi Calm Calm - N/A   Clear
12:53 AM 60.8 °F 53.6 °F 77% 29.94 in 10.0 mi Calm Calm - N/A   Clear
1:13 AM 59.0 °F 53.6 °F 82% 29.93 in 10.0 mi Calm Calm - N/A   Clear
1:32 AM 57.2 °F 53.6 °F 88% 29.93 in 10.0 mi Calm Calm - N/A   Clear
1:53 AM 57.2 °F 51.8 °F 82% 29.92 in 10.0 mi Calm Calm - N/A   Clear
2:12 AM 57.2 °F 51.8 °F 82% 29.93 in 10.0 mi Calm Calm - N/A   Clear
2:32 AM 55.4 °F 51.8 °F 88% 29.93 in 10.0 mi Calm Calm - N/A   Clear
2:53 AM 53.6 °F 51.8 °F 94% 29.93 in 10.0 mi Calm Calm - N/A   Clear
3:13 AM 53.6 °F 51.8 °F 94% 29.93 in 10.0 mi Calm Calm - N/A   Clear
3:32 AM 55.4 °F 51.8 °F 88% 29.94 in 10.0 mi Calm Calm - N/A   Clear
3:53 AM 53.6 °F 51.8 °F 94% 29.94 in 10.0 mi Calm Calm - N/A   Clear
4:13 AM 50.0 °F 48.2 °F 94% 29.94 in 10.0 mi Calm Calm - N/A   Clear
4:33 AM 50.0 °F 48.2 °F 94% 29.95 in 10.0 mi Calm Calm - N/A   Clear
4:53 AM 48.2 °F 46.4 °F 93% 29.95 in 10.0 mi Calm Calm - N/A   Clear
5:13 AM 48.2 °F 48.2 °F 100% 29.96 in 10.0 mi Calm Calm - N/A   Clear
5:33 AM 50.0 °F 50.0 °F 100% 29.96 in 10.0 mi Calm Calm - N/A   Clear
5:53 AM 50.0 °F 50.0 °F 100% 29.96 in 10.0 mi WNW 3.5 mph - N/A   Clear
6:13 AM 51.8 °F 51.8 °F 100% 29.96 in 10.0 mi NW 4.6 mph - N/A   Clear
6:33 AM 53.6 °F 51.8 °F 94% 29.96 in 10.0 mi Calm Calm - N/A   Clear
6:52 AM 53.6 °F 53.6 °F 100% 29.97 in 10.0 mi NW 3.5 mph - N/A   Clear
7:13 AM 55.4 °F 53.6 °F 94% 29.97 in 10.0 mi Calm Calm - N/A   Clear
7:33 AM 57.2 °F 53.6 °F 88% 29.97 in 10.0 mi NNW 5.8 mph - N/A   Clear
7:52 AM 57.2 °F 53.6 °F 88% 29.97 in 10.0 mi NNW 3.5 mph - N/A   Clear
8:13 AM 59.0 °F 53.6 °F 82% 29.99 in 10.0 mi NNW 3.5 mph - N/A   Clear
8:33 AM 60.8 °F 53.6 °F 77% 29.99 in 10.0 mi WNW 3.5 mph - N/A   Clear
8:52 AM 62.6 °F 55.4 °F 77% 29.99 in 10.0 mi NNW 4.6 mph - N/A   Clear
9:12 AM 62.6 °F 53.6 °F 72% 30.00 in 10.0 mi NNW 5.8 mph - N/A   Clear
9:33 AM 64.4 °F 53.6 °F 68% 30.00 in 10.0 mi North 6.9 mph - N/A   Clear
9:53 AM 64.4 °F 53.6 °F 68% 30.00 in 10.0 mi North 9.2 mph - N/A   Clear
10:13 AM 66.2 °F 53.6 °F 64% 30.00 in 10.0 mi North 5.8 mph - N/A   Clear
10:33 AM 66.2 °F 53.6 °F 64% 30.00 in 10.0 mi NNW 4.6 mph - N/A   Clear
10:53 AM 66.2 °F 53.6 °F 64% 30.01 in 10.0 mi North 8.1 mph - N/A   Clear
11:13 AM 66.2 °F 53.6 °F 64% 30.00 in 10.0 mi NNW 9.2 mph - N/A   Clear
11:33 AM 68.0 °F 53.6 °F 60% 30.00 in 10.0 mi NNW 10.4 mph 16.1 mph N/A   Clear
11:53 AM 69.8 °F 53.6 °F 56% 30.00 in 10.0 mi North 11.5 mph 16.1 mph N/A   Scattered Clouds
12:12 PM 69.8 °F 53.6 °F 56% 30.01 in 10.0 mi NW 10.4 mph - N/A   Scattered Clouds
12:33 PM 69.8 °F 51.8 °F 53% 30.01 in 10.0 mi NNW 8.1 mph - N/A   Scattered Clouds
12:53 PM 69.8 °F 51.8 °F 53% 30.01 in 10.0 mi NNW 9.2 mph - N/A   Mostly Cloudy
1:12 PM 71.6 °F 51.8 °F 50% 30.01 in 10.0 mi NNW 8.1 mph - N/A   Mostly Cloudy
1:33 PM 71.6 °F 51.8 °F 50% 30.01 in 10.0 mi NNW 8.1 mph - N/A   Scattered Clouds
1:53 PM 71.6 °F 51.8 °F 50% 30.01 in 10.0 mi NW 6.9 mph - N/A   Scattered Clouds
2:12 PM 71.6 °F 51.8 °F 50% 30.01 in 10.0 mi North 13.8 mph 19.6 mph N/A   Scattered Clouds
2:32 PM 71.6 °F 51.8 °F 50% 30.02 in 10.0 mi NNW 10.4 mph - N/A   Clear
2:52 PM 71.6 °F 51.8 °F 50% 30.01 in 10.0 mi North 11.5 mph - N/A   Scattered Clouds
3:12 PM 71.6 °F 50.0 °F 46% 30.02 in 10.0 mi NNW 8.1 mph - N/A   Scattered Clouds
3:33 PM 71.6 °F 50.0 °F 46% 30.02 in 10.0 mi NNW 10.4 mph - N/A   Clear
3:53 PM 71.6 °F 48.2 °F 43% 30.02 in 10.0 mi NNW 10.4 mph 16.1 mph N/A   Clear
4:12 PM 71.6 °F 48.2 °F 43% 30.02 in 10.0 mi NNW 5.8 mph 9.2 mph N/A   Clear
4:33 PM 71.6 °F 50.0 °F 46% 30.01 in 10.0 mi NW 6.9 mph - N/A   Clear
4:53 PM 73.4 °F 51.8 °F 47% 30.01 in 10.0 mi North 9.2 mph - N/A   Scattered Clouds
5:13 PM 71.6 °F 50.0 °F 46% 30.01 in 10.0 mi North 10.4 mph - N/A   Scattered Clouds
5:32 PM 73.4 °F 50.0 °F 44% 30.02 in 10.0 mi NNW 10.4 mph - N/A   Clear
5:53 PM 71.6 °F 50.0 °F 46% 30.02 in 10.0 mi North 6.9 mph - N/A   Clear
6:12 PM 71.6 °F 51.8 °F 50% 30.03 in 10.0 mi North 6.9 mph - N/A   Scattered Clouds
6:32 PM 69.8 °F 51.8 °F 53% 30.03 in 10.0 mi NNW 4.6 mph - N/A   Clear
6:53 PM 69.8 °F 50.0 °F 49% 30.04 in 10.0 mi North 9.2 mph - N/A   Clear
7:13 PM 69.8 °F 53.6 °F 56% 30.04 in 10.0 mi North 4.6 mph - N/A   Clear
7:32 PM 69.8 °F 51.8 °F 53% 30.04 in 10.0 mi North 3.5 mph - N/A   Clear
7:53 PM 69.8 °F 53.6 °F 56% 30.05 in 10.0 mi Calm Calm - N/A   Clear
8:12 PM 66.2 °F 55.4 °F 68% 30.04 in 10.0 mi Calm Calm - N/A   Clear
8:33 PM 62.6 °F 53.6 °F 72% 30.06 in 10.0 mi Calm Calm - N/A   Clear
8:53 PM 60.8 °F 53.6 °F 77% 30.06 in 10.0 mi Calm Calm - N/A   Scattered Clouds
9:13 PM 59.0 °F 53.6 °F 82% 30.07 in 10.0 mi Calm Calm - N/A   Clear
9:33 PM 57.2 °F 53.6 °F 88% 30.08 in 10.0 mi Calm Calm - N/A   Clear
9:52 PM 55.4 °F 53.6 °F 94% 30.08 in 10.0 mi Calm Calm - N/A   Clear
10:13 PM 55.4 °F 51.8 °F 88% 30.08 in 10.0 mi Calm Calm - N/A   Clear
10:32 PM 55.4 °F 51.8 °F 88% 30.09 in 10.0 mi Calm Calm - N/A   Scattered Clouds
10:53 PM 53.6 °F 51.8 °F 94% 30.09 in 10.0 mi Calm Calm - N/A   Scattered Clouds
11:13 PM 53.6 °F 51.8 °F 94% 30.10 in 10.0 mi Calm Calm - N/A   Clear
11:33 PM 51.8 °F 51.8 °F 100% 30.10 in 10.0 mi Calm Calm - N/A   Clear
11:52 PM 51.8 °F 51.8 °F 100% 30.11 in 10.0 mi Calm Calm - N/A   Clear